Погода в Костроме

Россия / Камчатский край     59°02′23″N   163°09′57″E
темп.,
°C
ветер,
м/с
пор.,
м/с
влажн.,
%
обл.,
%
осадки,
мм/ч
давл.,
гПа
погр.,
м
6 марта, сб
сб600:00−25зсз34860 0.0 100324
03:00−26сз34960 0.0 100266
06:00−26ссз44960 0.0 100381
09:00−25с459968 0.0 1002177
12:00−23с228684 0.0 1002264
15:00−21с3382100 0.0 1000386
18:00−20ссв4587100 0.1 1000431
21:00−23ссв469398 0.0 1001274
7 марта, вс
вс700:00−25с589676 0.0 1002250
03:00−25с699167 0.0 1000281
06:00−24с7118083 0.0 998377
09:00−23с91480100 0.0 995525
12:00−21с111669100 0.0 993678
15:00−20ссз101665100 0.0 989774
18:00−22ссз111865100 0.0 9901040
21:00−25сз7137497 0.0 992538
8 марта, пн
пн800:00−27зсз688798 0.0 993160
03:00−29зсз459351 0.0 99497
06:00−29зюз459626 0.0 99591
09:00−28зюз56930 0.0 996162
12:00−25з79843 0.0 996283
15:00−22з676853 0.0 996590
18:00−22зюз477772 0.0 997250
21:00−24з568952 0.0 999103
9 марта, вт
вт900:00−27зсз339552 0.0 100054
03:00−27зсз229370 0.0 100249
06:00−27зсз229348 0.0 100432
09:00−27з12920 0.0 100630
12:00−23зюз22680 0.0 1007172
15:00−21зюз11640 0.0 1008211
18:00−23в00930 0.0 101020
21:00−24ссз11950 0.0 101220
10 марта, ср
ср1000:00−24сз22920 0.0 101320
03:00−25ссз22930 0.0 101520
06:00−25с22930 0.0 101619
09:00−24ссз22952 0.0 101837
12:00−21с11814 0.0 1019156
15:00−20ссз11823 0.0 1019201
18:00−21ссз22952 0.0 101929
21:00−22ссз23940 0.0 102027